Theta_e
322 322 322 321 321 320 320 320 320 320 320 321 322 322 321 321 321 322 318 318 323 334 326 319 318 318 319 318 319 318 312 311 312 314 320 324 323 332 335 333 337 341 338 339 340
322 323 323 322 321 321 320 320 320 320 320 321 322 322 321 321 321 319 323 334 334 336 318 316 315 317 317 317 318 314 313 315 320 324 322 323 325 328 329 332 335 338 343 343 341
322 322 322 322 321 321 320 320 320 320 321 321 322 321 321 322 323 320 333 336 337 328 320 319 319 317 315 317 317 316 314 320 320 326 325 326 326 327 326 327 334 334 338 340 339
321 321 321 321 321 321 320 320 320 320 321 321 321 322 321 326 312 325 339 336 337 326 319 318 317 314 314 312 316 312 315 317 320 326 325 325 332 330 333 333 337 337 337 336 335
319 320 320 320 320 320 320 320 320 320 320 320 320 322 322 323 319 328 339 333 326 320 317 317 315 315 312 313 314 314 314 315 319 323 328 331 330 331 332 335 336 337 337 337 338
318 318 318 319 320 320 320 320 320 319 319 319 321 320 324 316 325 325 326 323 320 318 318 319 316 317 315 314 314 315 314 314 317 322 326 327 329 329 333 337 336 337 338 340 340
317 317 317 318 319 319 320 319 319 319 319 320 323 326 325 317 325 323 320 318 319 320 317 319 319 316 316 313 316 315 311 312 313 318 318 322 318 325 334 336 334 335 337 338 338
317 316 316 317 318 319 319 319 319 319 320 321 323 329 319 326 328 322 322 320 322 321 321 320 320 318 316 317 314 311 312 307 312 313 316 315 310 326 334 334 332 333 334 335 337
317 316 316 317 317 318 318 319 319 320 321 324 329 329 317 322 320 323 322 318 320 320 320 319 318 315 314 310 308 309 304 306 309 314 312 312 312 324 331 331 331 333 333 334 336
317 316 315 316 316 316 317 319 321 319 323 329 327 319 318 316 320 321 324 322 317 317 315 314 314 310 311 308 302 305 305 307 307 311 312 309 310 323 326 327 329 332 332 333 333
316 315 315 315 315 315 316 324 320 320 323 316 316 316 316 320 322 318 321 319 317 314 309 313 308 305 308 310 310 309 307 306 309 315 312 310 310 319 324 325 327 330 331 332 331
315 315 315 314 314 314 320 318 317 319 311 317 316 316 319 320 313 316 321 314 312 308 311 310 305 310 311 310 309 308 307 307 310 312 312 311 312 317 322 324 326 328 330 331 330
315 314 315 314 313 317 320 318 324 322 313 314 315 314 316 319 312 313 317 315 311 309 309 307 309 311 308 307 306 307 306 307 307 312 312 312 310 314 321 325 327 329 330 332 330
314 314 314 312 314 319 319 321 323 323 308 309 310 314 316 317 311 318 318 315 312 309 310 309 312 309 307 306 307 304 310 309 307 308 304 313 302 312 317 320 324 326 328 329 329
314 314 313 311 320 316 319 322 323 321 299 311 311 320 318 313 314 312 319 315 310 309 309 307 308 307 306 308 310 308 311 309 308 307 306 307 303 306 316 315 319 324 327 328 327
313 313 312 318 321 321 321 322 321 307 295 307 312 310 310 312 311 313 314 317 316 310 311 310 313 311 310 311 310 312 308 308 308 306 299 305 304 304 310 315 318 323 326 327 326
313 312 312 319 316 321 322 319 305 299 306 306 306 309 309 307 309 310 309 308 307 303 304 308 308 311 312 308 311 309 307 299 298 299 298 307 303 305 312 314 314 315 325 327 327
311 309 317 321 323 322 321 311 299 303 302 311 309 308 306 309 308 309 308 306 310 309 306 303 301 308 311 309 308 308 307 301 295 297 300 307 301 307 317 318 318 319 320 326 325
308 320 320 322 324 323 314 303 303 305 306 305 308 306 306 308 307 308 307 307 310 310 304 304 304 311 311 312 310 307 304 309 303 304 300 303 307 314 316 315 317 318 321 323 323
313 316 317 324 326 321 309 301 307 308 308 307 302 306 304 306 306 307 307 310 309 311 313 309 303 309 310 311 311 308 311 303 304 295 294 300 302 304 311 311 316 317 319 320 321
314 311 320 326 326 315 303 306 308 310 309 305 305 304 307 307 308 306 307 310 311 311 313 311 309 306 309 306 305 307 305 307 307 304 298 296 300 311 310 312 315 318 321 321 320
314 305 320 321 309 310 307 309 305 309 310 308 308 308 307 309 307 307 306 310 313 313 308 312 309 303 305 311 312 311 309 309 302 301 304 302 302 315 314 313 317 318 321 323 323
308 309 320 317 302 305 311 309 311 309 308 308 306 309 309 307 306 309 310 312 312 312 310 313 307 301 303 308 311 307 308 308 309 309 302 299 301 315 315 314 315 317 319 322 324
308 303 310 312 310 307 306 307 307 311 309 310 309 311 309 307 310 308 309 311 312 312 315 318 311 306 300 304 308 306 307 308 308 302 302 303 305 310 313 313 314 317 318 319 321
308 305 309 306 307 306 307 306 304 305 310 311 309 308 308 305 306 305 309 311 311 310 312 314 307 307 307 308 308 306 306 307 305 306 302 304 305 308 311 313 315 316 317 317 318
306 305 309 307 308 310 306 306 304 305 306 306 307 308 310 307 307 306 308 310 310 313 311 315 307 309 305 308 307 304 306 306 306 306 306 306 305 312 314 314 313 314 315 316 317
311 311 309 304 306 304 305 306 306 309 309 309 308 308 308 309 313 314 314 315 314 312 312 311 309 306 301 306 306 301 305 306 306 308 307 303 307 312 311 312 314 314 315 316 317
Wind_Speed
16 16 14 14 13 12 12 12 11 11 11 11 11 10 10 11 14 10 10 6 4 6 3 9 9 11 11 14 9 9 11 11 7 5 15 10 9 15 18 17 18 16 18 22 18
18 17 15 14 13 11 11 11 11 10 10 11 11 10 9 8 13 16 6 8 4 2 11 9 10 10 13 9 7 9 14 17 11 7 15 10 13 12 14 18 17 19 17 18 16
17 16 17 16 15 11 10 10 10 10 10 10 10 9 8 8 12 9 5 6 6 7 11 9 8 10 15 8 7 6 4 12 4 8 3 13 13 8 12 14 16 18 19 18 17
18 18 18 17 15 12 11 10 9 10 10 10 9 7 6 12 1 10 6 7 7 11 9 10 11 13 12 10 3 5 5 8 8 5 12 16 11 14 20 17 16 17 17 14 12
19 19 18 17 15 12 11 10 10 9 9 8 7 6 8 11 8 9 8 8 10 11 10 10 11 14 10 3 6 8 8 5 5 5 10 12 13 14 17 16 17 16 14 13 12
19 18 18 18 16 14 11 9 8 9 9 6 5 4 8 11 5 10 10 10 11 10 6 9 7 7 13 5 13 4 5 6 8 10 15 16 15 10 11 14 14 14 13 11 11
19 20 20 19 19 16 12 9 8 9 8 6 5 6 13 8 3 8 9 11 7 5 7 2 7 10 3 7 1 6 9 7 7 8 8 10 12 11 12 13 13 13 11 10 9
21 22 22 21 20 17 13 9 8 10 6 7 5 8 2 3 2 8 8 8 6 5 6 4 6 12 9 2 7 12 16 13 14 6 7 8 6 15 13 13 13 12 10 9 9
22 22 24 23 20 18 13 8 8 7 7 6 7 10 5 5 10 9 10 11 9 6 3 5 10 12 9 11 14 14 14 16 14 14 7 11 7 13 13 12 11 10 10 10 10
22 23 24 24 23 16 13 6 4 4 8 9 11 10 8 4 5 6 6 4 9 8 9 11 9 11 13 13 13 15 15 16 13 14 11 14 11 12 11 12 11 11 10 9 9
23 24 24 25 25 19 11 7 7 8 13 15 6 5 1 5 6 11 9 11 8 9 13 13 12 13 16 14 18 11 4 11 8 9 8 13 17 13 10 11 13 11 11 10 9
23 23 25 27 25 22 9 6 8 9 10 11 11 10 4 3 7 13 11 11 10 14 14 8 13 15 14 8 10 11 8 10 7 3 7 10 13 5 11 13 11 14 13 12 10
22 23 25 30 28 10 7 6 9 7 9 7 6 12 11 11 11 13 12 14 10 14 11 16 3 4 4 9 12 15 14 9 7 9 11 7 16 15 16 14 11 10 11 12 13
21 22 23 32 7 11 4 7 9 6 9 11 10 9 10 12 11 7 14 10 9 11 13 11 7 6 11 14 14 14 9 6 2 10 13 12 13 18 19 16 15 13 11 11 11
22 22 22 11 12 9 9 9 9 6 8 5 9 7 11 15 12 11 13 7 15 9 7 8 6 10 12 12 9 8 5 8 8 11 14 12 9 12 19 14 16 16 16 14 13
22 23 19 3 10 12 11 11 7 9 4 7 7 11 12 13 10 14 11 11 6 7 12 1 2 9 5 5 3 5 7 8 12 14 14 17 17 12 8 18 20 22 15 14 13
23 26 15 10 9 13 11 9 10 10 5 7 6 7 14 10 11 12 17 15 11 10 11 10 12 9 5 9 8 10 10 9 13 13 14 5 5 10 9 6 6 3 14 15 14
24 29 7 9 11 11 9 11 12 6 4 5 6 7 13 13 12 13 15 15 16 11 12 12 14 12 12 14 8 16 14 11 14 10 6 10 6 4 10 5 2 1 8 11 15
29 9 9 9 5 5 9 12 14 7 2 4 8 11 13 14 10 15 15 14 13 12 13 7 7 10 5 9 7 12 8 9 10 14 13 14 15 11 9 5 1 4 6 10 14
10 11 13 3 5 7 10 17 13 3 6 8 14 8 12 16 15 13 15 15 14 7 11 4 8 11 10 7 9 12 8 7 11 13 15 13 8 8 11 6 5 6 8 11 13
8 6 8 3 6 9 13 16 16 9 10 9 12 14 10 13 13 18 17 14 10 12 11 9 7 4 6 11 15 10 13 12 12 11 11 10 7 4 6 1 2 6 9 12 14
8 8 8 5 9 10 14 19 7 8 11 14 9 15 14 11 12 13 17 15 15 11 13 15 6 12 15 4 4 9 12 10 10 11 12 11 11 9 1 3 6 7 8 10 12
7 10 7 6 9 12 15 16 12 12 14 12 11 12 14 14 14 15 15 8 0 9 11 10 9 12 17 13 11 13 17 13 13 11 14 15 12 8 7 4 5 9 10 11 13
6 6 8 9 13 16 14 15 17 15 17 14 13 12 12 13 13 16 12 6 2 11 7 4 12 15 14 16 1 17 17 16 14 13 15 17 17 9 13 8 6 8 6 7 7
6 6 5 5 11 17 17 14 15 17 17 14 17 17 15 15 17 19 18 7 7 4 5 6 15 18 20 21 21 12 14 17 17 18 20 18 21 18 7 6 10 9 2 5 7
7 5 5 12 10 8 9 14 18 17 16 17 18 18 17 19 18 17 20 18 11 15 13 9 11 16 20 18 20 17 21 20 20 22 22 20 22 17 11 11 11 4 5 8 3
7 6 7 8 12 13 14 16 14 10 15 16 16 16 16 18 17 17 19 18 12 16 14 15 10 14 17 18 22 25 17 20 22 22 22 21 17 6 5 4 7 7 5 9 10
Wind_Direction
360 357 350 343 332 319 304 293 286 286 286 290 291 289 291 299 294 236 239 52 100 132 212 246 227 217 231 249 233 230 257 206 153 255 112 150 160 61 77 81 65 54 79 120 140
359 350 345 337 327 310 296 287 283 283 285 289 286 285 288 307 265 243 104 105 116 180 230 216 201 200 224 232 212 241 245 56 35 17 125 160 130 143 140 119 100 97 102 126 147
353 346 339 334 325 308 298 291 291 287 283 282 284 289 290 285 263 102 124 148 184 247 268 292 296 222 242 222 198 239 49 88 104 14 151 86 100 196 108 77 110 117 128 144 152
348 348 339 330 321 318 308 300 292 283 279 278 286 290 291 250 288 80 158 182 226 267 251 231 232 221 239 203 197 251 60 75 105 200 158 140 88 65 68 87 112 120 120 124 136
349 344 336 327 325 324 310 303 290 281 272 274 291 299 265 222 65 115 151 191 225 234 246 234 229 229 242 201 204 241 128 124 162 136 58 116 110 99 96 106 114 119 125 113 99
347 341 334 335 338 334 315 295 281 271 260 269 282 293 249 250 93 139 187 188 234 222 222 251 267 298 290 218 227 118 183 148 175 130 151 133 140 136 113 118 119 117 113 106 109
344 341 341 342 344 343 329 289 268 257 254 264 267 266 258 82 109 147 186 201 187 261 212 206 319 235 293 212 330 209 209 185 184 166 156 142 158 111 138 137 129 122 118 117 114
345 342 341 346 343 343 334 298 256 243 261 258 257 258 23 103 178 188 193 170 188 197 305 306 262 278 251 43 211 233 233 193 176 177 130 251 182 137 156 152 149 141 137 128 110
344 341 340 342 341 338 331 322 249 253 233 233 240 222 146 137 211 191 208 182 177 195 180 290 251 246 194 239 217 207 234 242 147 186 187 224 149 144 164 170 153 165 162 141 130
343 343 338 336 334 332 314 286 193 244 221 228 265 264 170 172 140 202 203 270 201 191 208 219 221 222 233 219 228 212 215 245 209 172 222 215 232 143 172 180 175 176 166 160 139
341 339 336 332 329 329 308 211 224 195 224 278 314 294 130 158 188 213 184 208 218 218 225 195 228 218 226 233 265 322 229 264 204 88 284 238 235 163 178 205 186 184 178 167 143
336 336 333 328 327 317 278 5 35 326 296 265 245 251 274 272 209 200 189 215 204 224 209 197 230 251 229 247 251 258 248 238 66 315 257 246 264 172 189 214 205 201 185 169 148
332 336 335 325 321 287 328 23 317 313 268 208 230 227 198 209 237 188 200 223 218 229 196 242 217 141 242 219 236 234 244 226 254 162 232 250 235 193 212 211 206 202 188 172 175
332 334 336 328 302 341 278 348 318 344 270 139 188 197 190 206 219 225 199 222 223 237 219 236 107 214 220 228 220 228 230 341 243 234 249 196 272 174 194 200 190 195 206 181 174
328 329 332 321 311 296 4 324 331 253 259 125 131 102 179 216 106 194 195 212 253 209 252 201 177 206 215 221 203 44 115 227 253 268 280 211 240 289 170 200 202 203 193 193 174
324 321 336 274 249 261 307 311 259 236 231 141 157 187 192 215 211 146 188 249 305 234 226 253 282 211 244 113 201 51 240 234 251 253 251 242 250 252 200 198 202 185 190 186 173
320 311 314 296 284 339 314 270 240 248 99 164 195 190 200 182 182 177 199 200 215 216 198 190 201 203 251 192 200 225 233 239 230 227 235 139 213 258 103 57 353 348 172 176 180
317 309 257 254 291 299 285 250 252 308 260 96 239 206 234 205 205 199 201 219 224 268 277 197 186 185 203 246 239 201 246 265 286 283 297 138 246 206 79 104 19 259 276 175 178
311 291 276 247 232 282 256 239 235 259 357 242 217 231 215 234 225 201 224 228 225 207 254 280 215 108 180 233 267 262 236 290 300 283 274 286 270 142 134 133 141 234 215 182 181
311 293 261 55 270 232 237 249 273 335 304 251 252 234 237 196 214 232 209 221 241 176 246 284 271 170 153 232 228 264 335 228 215 256 262 268 280 340 151 180 163 221 197 183 188
266 265 108 168 198 223 235 240 234 238 250 252 264 267 254 276 223 216 233 227 218 195 233 239 241 216 161 207 238 181 229 241 278 306 305 289 285 60 351 8 183 208 186 190 195
275 252 110 206 223 231 238 238 287 248 215 248 257 283 271 277 251 266 257 232 179 231 204 225 253 250 225 235 281 306 292 253 240 242 243 259 267 35 237 258 181 216 203 197 197
258 260 152 230 240 232 234 257 271 228 242 226 235 242 254 254 262 264 262 77 131 209 221 207 214 248 251 185 209 236 240 249 265 272 267 280 284 143 162 235 235 251 233 193 199
274 254 190 210 255 270 270 238 239 228 256 252 253 259 259 252 258 263 245 141 214 246 49 335 233 248 257 268 350 209 243 241 234 253 260 262 277 228 178 196 221 216 249 272 201
241 250 330 230 211 223 239 262 258 245 234 231 246 244 243 247 255 249 239 202 181 171 234 236 244 247 251 261 276 269 248 219 237 251 260 277 282 290 307 200 207 218 229 285 254
287 243 206 269 281 248 227 237 245 249 268 244 237 251 249 242 250 260 261 236 217 178 228 212 252 255 263 256 261 257 269 264 263 268 266 258 267 277 279 277 262 243 238 252 156
251 282 280 284 237 237 242 239 248 241 252 268 277 269 244 248 280 253 260 274 263 241 196 228 248 248 252 262 265 253 231 260 267 266 268 265 268 293 312 260 278 253 209 133 122